Temperature
15 16 16 16 19 19 19 19 19 18 18 17 16 17 19 19 19 17 14 14 13 14 13 13 13 14 14 14 14 14 14 14 14 14 14 14 14 14 14 14 14 14 14 14 14 14 14 14 14
15 15 16 17 19 19 19 19 18 18 17 15 15 16 17 16 14 13 13 13 13 13 13 13 13 14 14 14 14 14 14 14 14 14 14 14 14 14 14 14 14 14 14 14 14 14 14 14 14
15 15 16 18 18 19 19 18 18 16 15 15 16 15 15 14 13 13 13 13 13 13 13 13 13 13 13 13 13 13 13 13 14 14 14 14 14 14 14 14 14 14 14 14 14 14 14 14 14
15 15 16 18 18 18 18 18 17 16 15 14 15 15 13 12 12 12 13 13 13 13 13 13 13 13 13 13 13 13 13 13 13 13 13 14 14 13 13 13 13 14 14 13 13 13 14 14 14
14 16 17 17 17 17 17 16 15 17 16 15 15 15 13 12 12 13 13 13 13 13 13 13 13 13 13 13 13 13 13 13 13 13 13 13 13 13 13 13 13 13 13 13 13 13 13 13 13
14 16 17 17 17 16 16 15 15 16 15 14 14 15 13 12 12 12 12 12 12 12 12 12 12 13 13 13 13 13 13 13 13 13 13 13 13 13 13 13 13 13 13 13 13 13 13 13 13
15 16 17 17 17 16 16 14 15 15 15 14 13 14 12 11 12 12 12 12 12 12 12 12 12 12 12 12 13 13 13 13 13 13 13 13 13 13 13 13 13 13 13 13 13 13 13 13 13
13 15 15 16 16 16 15 13 13 14 14 12 12 14 13 11 11 11 11 11 11 12 12 12 12 12 12 12 12 12 12 12 12 12 12 12 12 12 12 12 12 12 12 12 12 12 12 13 13
12 15 15 15 15 15 14 13 12 11 12 11 10 11 10 11 11 11 11 11 11 11 11 11 11 11 12 12 12 12 12 12 12 12 12 12 12 12 12 12 12 12 12 12 12 12 12 12 12
13 14 15 14 15 15 13 13 12 12 12 11 10 10 10 10 10 10 11 11 11 11 11 11 11 11 11 11 11 11 11 11 12 12 12 12 12 11 11 12 12 12 12 12 12 12 12 12 12
12 13 13 12 12 12 12 12 11 12 13 12 11 10 10 10 10 10 10 10 11 11 11 11 11 11 11 11 11 11 11 11 11 11 11 11 11 11 11 11 11 11 11 11 11 11 11 11 11
12 11 11 11 10 11 11 11 10 11 11 10 10 10 10 10 10 10 10 10 10 10 10 11 11 11 11 11 11 11 11 11 11 11 11 11 11 11 11 11 11 11 11 11 11 11 11 11 11
11 11 10 9 9 9 9 10 10 9 9 9 9 9 9 9 9 9 9 9 10 10 10 10 10 10 10 10 10 10 10 10 10 10 10 10 10 10 10 10 10 10 10 10 10 10 10 10 10
10 10 9 9 9 9 9 9 9 9 8 8 8 8 9 9 9 9 9 9 9 9 10 10 10 10 10 10 10 10 10 10 10 10 10 10 10 10 10 10 10 10 10 10 10 10 10 10 10
9 10 10 10 9 9 9 10 10 9 8 8 8 8 8 8 8 8 9 9 9 9 9 9 10 10 9 9 9 9 9 9 9 9 9 9 10 10 10 10 9 10 10 9 10 10 10 9 9
10 11 11 10 9 9 10 11 11 8 8 8 7 7 8 8 8 8 8 8 9 9 9 9 9 9 9 9 9 9 9 9 9 9 9 9 9 9 9 9 9 9 9 9 9 9 9 9 9
10 11 11 11 9 9 10 11 10 7 7 8 7 7 7 7 7 7 7 8 8 8 8 8 9 8 8 8 8 8 8 8 8 8 8 8 8 8 9 9 9 9 9 9 9 9 8 9 8
11 11 11 11 10 9 9 10 9 7 7 7 7 7 6 7 7 7 7 7 7 8 8 8 8 8 8 8 8 8 8 8 8 8 8 8 8 8 8 8 8 8 8 8 8 8 8 8 8
10 10 10 10 9 8 9 9 9 8 7 7 6 6 6 6 6 7 7 7 7 7 7 7 7 7 7 7 7 7 7 7 7 7 7 7 7 7 8 8 8 8 8 8 8 8 7 7 7
9 9 9 9 8 8 8 8 9 8 7 6 6 6 5 5 6 6 7 7 7 7 7 7 7 7 7 7 7 7 7 7 7 7 7 7 7 7 7 7 7 7 7 7 7 7 7 7 7
8 9 9 8 8 7 7 9 9 8 6 5 5 5 5 5 5 5 6 6 6 6 6 6 6 6 6 6 6 6 6 6 6 6 6 6 6 6 7 6 6 6 7 7 7 7 7 7 6
8 8 7 7 7 9 8 10 11 9 7 7 6 5 5 4 4 5 5 5 5 6 5 5 5 5 6 6 5 5 5 6 6 6 6 6 6 6 6 6 6 6 6 6 6 6 6 6 6
7 6 6 6 7 7 7 8 11 8 8 8 6 5 4 4 4 4 5 5 5 5 5 5 5 5 5 5 5 5 5 5 5 5 5 5 5 5 5 5 5 5 5 5 5 6 6 6 6
5 6 5 5 6 7 8 8 11 10 9 8 7 5 4 4 3 4 4 4 4 4 4 4 4 4 4 4 4 5 5 4 4 4 4 4 4 4 5 5 5 5 5 5 5 5 5 5 5
6 7 8 8 8 9 7 7 9 9 7 7 6 5 4 3 3 4 4 4 4 4 4 4 4 4 4 4 4 4 4 4 4 4 4 4 4 4 4 4 4 4 4 4 4 4 4 4 5
6 7 8 9 9 9 6 7 9 7 5 4 4 4 3 3 3 3 3 4 4 4 4 4 4 4 4 4 4 4 4 4 4 4 4 4 4 4 4 4 4 4 4 4 4 4 4 4 4
6 6 6 6 6 6 8 8 8 6 5 4 4 3 3 3 3 3 3 3 3 3 3 3 3 4 4 4 4 4 3 3 3 3 3 3 3 3 3 3 3 3 3 3 3 3 3 3 3
5 5 5 6 6 8 8 8 9 6 5 5 4 3 2 2 2 2 3 3 3 3 3 3 3 3 3 3 3 3 3 3 3 3 3 3 3 3 3 3 3 3 3 3 3 3 3 3 3
4 4 5 6 6 7 8 9 7 6 5 4 4 2 2 2 2 2 2 2 2 2 3 3 3 3 3 3 3 3 3 3 3 2 2 2 2 2 2 2 2 2 2 2 2 2 2 2 2
4 4 4 5 5 5 7 8 5 4 4 3 2 1 1 1 1 1 1 1 2 2 2 2 2 2 2 2 2 2 2 2 2 2 2 2 2 2 2 2 2 2 2 2 1 1 1 1 1
Wind_Speed
4 2 1 2 4 4 7 5 3 3 3 1 1 2 2 1 1 2 3 2 3 5 6 6 6 7 9 9 9 10 11 11 10 10 10 10 10 11 11 12 12 13 14 14 15 15 16 16 17
3 1 2 2 5 7 6 6 6 4 2 2 2 2 2 1 1 2 2 1 3 5 6 6 7 8 9 9 9 10 10 10 10 10 10 10 11 11 11 12 12 13 14 14 15 15 16 16 16
1 1 2 3 5 8 6 4 5 4 3 3 2 1 1 1 1 1 2 2 4 5 5 6 7 8 9 9 10 10 10 10 10 10 10 10 11 11 11 12 13 13 13 14 14 15 15 16 16
2 2 2 5 8 6 5 3 4 6 4 2 3 3 2 2 2 2 1 3 5 5 5 6 7 7 9 10 10 9 9 10 9 9 9 10 11 11 11 12 12 12 13 13 14 14 15 15 15
1 3 5 6 8 6 4 3 5 5 4 3 3 3 3 2 3 3 2 4 5 5 5 6 6 7 9 9 9 9 9 9 9 9 9 10 11 11 11 12 12 12 12 12 13 13 14 15 15
3 3 6 9 9 6 4 4 5 4 4 3 3 3 3 2 3 2 2 4 4 4 4 5 6 6 8 9 9 9 9 9 9 9 9 10 10 11 11 11 12 11 11 12 12 12 13 14 14
3 4 7 8 8 7 5 4 5 5 5 3 2 3 3 2 2 1 3 3 4 4 4 4 5 5 6 8 9 9 9 9 9 9 9 10 10 11 11 11 11 11 11 12 12 11 12 13 13
1 3 5 8 9 8 5 4 3 4 4 1 2 3 3 1 1 2 3 4 3 3 3 3 3 3 4 6 8 8 9 9 9 9 10 10 11 11 11 10 11 11 11 11 12 11 12 12 12
2 4 8 8 8 6 5 5 3 1 3 2 1 2 2 2 3 4 3 3 3 2 2 2 2 2 3 5 6 7 8 8 8 9 10 10 9 9 9 10 10 11 11 11 11 11 11 12 11
3 7 8 4 5 5 5 5 4 4 4 4 3 1 1 4 5 4 4 3 2 2 1 1 1 2 2 4 5 6 6 7 7 7 8 8 7 7 8 10 10 11 10 10 10 10 9 8 8
3 5 4 3 3 4 5 4 4 6 7 7 6 5 4 5 5 5 4 4 3 3 2 1 1 1 2 2 3 4 5 5 6 6 7 7 7 7 7 7 8 8 8 8 8 7 6 6 6
3 3 4 3 2 3 5 5 5 6 6 4 4 4 5 6 6 6 5 4 3 3 2 2 2 2 2 2 3 3 3 4 4 6 6 6 5 5 5 5 5 5 5 5 5 5 6 6 6
5 3 3 3 2 2 3 5 6 7 6 3 2 4 6 7 7 6 5 4 3 3 2 2 2 2 2 2 3 2 3 3 4 5 6 6 5 5 5 5 5 4 5 5 5 5 5 5 5
3 3 3 3 4 4 4 6 6 7 5 4 4 5 5 6 6 5 4 4 4 3 3 2 2 2 2 2 3 3 3 3 4 4 5 6 6 6 5 4 4 4 4 4 5 5 5 4 5
3 3 4 4 4 3 4 7 8 7 5 6 6 6 6 6 5 5 5 5 5 4 3 2 2 2 2 3 3 3 4 4 4 5 5 5 5 6 6 5 4 4 4 5 5 5 5 4 4
3 4 6 4 4 4 6 11 6 4 7 7 7 6 6 6 5 5 4 5 5 4 3 3 1 2 3 3 3 3 4 4 4 5 5 5 4 5 5 5 4 5 5 5 4 4 4 4 3
5 6 8 5 4 4 8 10 5 4 7 8 8 7 7 6 5 5 4 5 5 4 4 3 3 3 3 3 3 3 3 3 4 4 4 4 5 4 4 4 5 6 5 4 4 4 4 4 3
7 7 7 7 4 6 10 12 9 7 8 9 8 7 7 7 7 6 4 4 4 4 4 4 3 3 3 3 3 3 3 3 3 3 4 5 5 5 4 4 5 6 4 4 4 4 3 3 3
6 8 9 8 4 6 11 14 13 9 9 10 9 8 8 8 7 5 4 3 3 3 3 3 3 3 3 4 4 4 4 3 3 3 4 5 5 5 4 3 5 5 4 4 5 4 5 3 3
8 9 9 7 4 5 9 14 13 11 11 10 10 9 9 7 6 5 4 3 3 3 4 3 4 4 4 4 4 4 4 4 4 3 4 4 5 5 5 4 4 4 4 5 5 5 4 3 3
9 10 9 7 5 5 7 10 10 8 9 9 9 9 8 8 7 6 5 4 4 4 5 4 5 5 5 5 4 3 3 3 3 4 3 4 5 5 6 5 5 4 5 5 5 6 6 5 4
9 7 8 7 6 4 4 8 8 7 9 9 8 8 8 7 7 6 5 5 5 5 5 5 5 5 5 5 5 6 5 4 4 4 4 4 5 5 5 5 5 5 4 5 5 5 5 7 6
5 2 4 6 6 6 6 7 8 5 9 9 6 6 6 6 6 6 6 6 6 5 5 4 4 4 4 5 6 7 6 4 3 4 5 5 4 5 5 5 5 5 4 5 5 5 5 6 6
3 2 2 3 5 7 9 9 9 6 8 6 5 5 5 4 5 5 5 5 5 4 4 4 4 4 3 5 6 7 7 6 5 5 5 5 4 4 5 6 5 5 5 5 6 6 6 5 6
4 3 2 4 5 7 4 7 9 5 5 5 5 5 4 4 4 4 4 4 4 4 4 4 4 4 4 5 6 6 7 7 7 7 6 5 4 4 6 5 6 5 5 6 6 6 6 6 6
7 6 5 5 6 5 4 9 6 2 3 4 4 4 3 3 3 3 4 4 4 4 4 5 5 5 5 5 5 6 7 6 6 7 6 6 6 6 6 7 7 7 7 6 6 5 6 6 6
6 7 3 2 3 6 7 7 7 2 2 3 3 3 4 4 3 4 4 4 4 5 5 5 6 6 5 5 5 6 6 6 6 6 6 6 5 5 6 7 7 7 7 7 7 6 6 6 6
2 4 4 5 5 7 7 8 6 4 4 4 4 4 4 4 4 4 4 4 4 4 5 5 6 6 6 6 5 5 6 6 6 6 6 6 6 6 6 6 7 7 7 7 7 6 6 6 6
5 4 5 4 4 6 7 6 2 4 4 4 5 4 4 5 4 4 4 4 4 4 4 4 5 6 5 5 5 5 6 6 6 6 7 6 6 7 7 7 7 7 7 7 7 7 7 7 7
6 7 7 5 6 6 7 7 1 2 3 4 5 5 5 4 4 4 4 4 3 4 4 4 5 5 5 5 5 5 6 6 6 6 6 6 6 7 7 7 7 7 7 8 8 8 8 9 9
Wind_Direction
330 322 263 221 201 207 219 205 195 177 174 170 160 191 196 208 255 90 61 102 128 147 152 150 136 133 131 122 116 114 110 107 102 100 96 92 89 86 83 81 78 81 92 97 97 96 95 93 93
326 301 204 212 218 214 214 208 197 191 162 147 160 181 177 171 30 53 67 102 140 146 150 147 135 134 134 128 122 117 114 111 106 102 98 94 91 88 85 84 82 83 87 94 95 97 97 96 95
258 315 207 199 219 225 208 187 195 176 170 191 171 169 200 129 95 28 30 154 145 143 145 133 133 134 136 131 126 122 117 114 110 105 101 98 94 89 87 86 85 85 87 91 95 96 99 100 98
205 173 196 218 220 227 227 167 157 166 180 205 196 154 134 61 24 20 72 147 145 144 142 130 129 134 138 133 130 126 122 118 114 111 107 103 99 94 89 88 89 89 92 93 98 100 102 102 102
196 192 202 218 227 222 226 202 182 187 181 178 197 195 162 93 40 49 96 135 144 142 136 131 132 136 138 136 134 131 126 122 120 118 114 108 103 99 94 92 94 95 96 98 98 104 105 105 103
170 197 214 222 219 218 215 206 202 208 198 186 197 205 188 99 58 54 100 124 125 127 121 123 125 127 141 143 140 137 132 127 123 119 116 112 109 105 100 97 96 98 100 101 99 103 109 108 104
202 199 222 224 221 221 212 196 212 212 209 209 219 204 184 139 51 77 116 119 114 114 108 106 128 135 135 145 142 138 137 132 127 123 118 112 109 108 105 103 100 99 99 99 98 100 109 110 106
211 193 214 221 222 224 202 193 220 229 219 210 226 222 214 186 106 121 118 115 111 103 101 99 122 139 146 145 138 139 139 137 132 128 123 117 113 112 108 107 103 100 98 98 99 99 111 110 107
196 213 222 218 220 218 195 202 212 236 195 192 228 284 344 132 143 132 115 109 114 96 90 88 103 124 144 143 140 138 140 138 138 134 127 126 124 118 114 106 103 100 98 97 99 98 107 110 107
196 221 228 228 230 216 193 208 199 190 209 225 228 241 142 157 163 157 152 154 156 159 149 124 134 130 135 142 146 151 151 149 147 143 139 134 127 120 117 107 103 101 99 97 96 98 106 118 119
199 222 221 227 239 220 202 208 215 214 231 241 240 218 183 178 182 184 185 188 193 188 186 202 185 160 141 142 150 160 161 155 153 146 140 132 124 123 121 116 110 106 102 98 100 103 96 110 115
196 228 228 229 239 222 216 213 224 233 251 281 256 210 193 195 201 201 199 202 202 199 199 205 202 181 164 152 153 159 154 154 147 149 142 137 130 130 131 125 122 115 110 107 102 101 102 101 112
215 223 238 237 227 235 226 230 239 250 261 260 220 196 204 208 209 210 210 210 211 215 216 222 213 192 177 160 146 149 154 159 151 149 149 145 140 139 136 129 130 123 120 118 114 110 109 105 110
193 200 231 257 240 240 231 252 245 248 234 218 209 211 214 216 216 214 220 223 225 230 237 234 209 198 181 173 165 159 155 155 151 152 155 156 152 147 143 138 134 130 131 130 127 122 117 111 112
190 221 249 245 235 225 231 253 237 239 214 217 222 223 223 225 223 224 225 227 228 231 238 242 223 197 191 186 182 171 167 165 156 157 154 153 159 156 151 149 144 141 140 136 131 125 118 116 113
201 220 235 226 224 223 230 253 240 216 214 227 229 229 229 229 228 236 239 232 228 229 234 233 239 215 198 188 182 174 170 162 149 156 158 149 149 161 159 157 152 151 149 147 142 138 133 131 127
210 232 242 240 212 218 229 255 249 226 228 236 237 236 235 235 240 248 250 241 231 227 227 223 217 224 203 185 171 161 159 150 145 145 144 155 152 156 165 162 155 156 155 154 149 147 147 145 138
225 236 245 245 221 228 241 253 254 244 239 244 247 245 239 241 249 252 252 244 237 230 224 217 214 224 208 181 168 157 156 156 154 153 151 156 157 160 162 158 158 158 158 157 157 152 144 149 145
236 241 255 260 259 250 252 261 261 249 242 246 247 245 242 244 251 250 245 237 234 234 228 216 215 220 202 186 185 182 189 184 177 164 160 160 158 161 161 158 159 162 162 164 162 153 148 151 153
228 242 257 271 253 251 266 268 263 250 242 243 245 244 244 247 248 246 239 226 227 230 228 220 219 221 209 200 195 194 192 188 181 170 164 164 163 165 169 165 169 172 162 163 167 164 164 166 184
231 237 249 266 289 248 278 269 246 237 233 239 243 245 246 244 243 242 238 230 230 231 229 223 223 218 210 198 185 174 171 171 180 186 182 180 175 174 174 174 173 183 177 174 180 181 181 181 189
240 238 243 253 262 258 247 275 253 238 240 238 239 238 243 243 242 239 235 231 228 231 227 226 219 208 209 193 189 185 191 200 199 188 186 184 184 180 181 177 183 186 184 185 188 192 192 185 190
240 221 232 241 243 261 232 253 265 234 245 238 228 231 239 241 239 236 233 231 228 227 223 218 214 202 204 200 195 194 200 202 187 182 182 187 190 187 186 182 185 195 196 191 197 198 196 195 196
177 176 197 218 230 248 231 234 266 232 237 235 222 226 235 241 239 236 233 229 225 221 218 214 210 206 204 207 199 202 202 196 189 189 189 192 193 197 195 192 195 199 203 203 203 202 202 203 203
189 200 233 229 225 242 202 232 255 254 237 234 235 238 242 238 233 234 232 229 226 220 219 216 212 215 212 214 206 209 209 204 202 200 198 197 199 205 204 201 204 205 209 209 208 211 210 207 209
203 211 229 247 253 264 216 237 254 251 247 240 240 249 251 245 244 241 241 234 229 226 223 219 220 224 221 219 218 213 215 209 210 207 206 206 209 211 208 206 209 210 208 209 210 214 217 215 215
195 213 240 257 276 263 246 256 271 214 230 220 233 252 265 273 269 258 249 240 235 233 231 229 227 228 226 225 228 217 217 215 213 210 210 211 211 210 207 207 208 210 209 209 209 216 218 222 222
243 180 179 210 239 255 258 253 249 218 225 227 242 263 281 288 286 278 263 252 244 241 239 236 233 232 230 227 229 225 218 218 216 213 214 215 213 207 205 208 210 211 211 211 212 216 220 223 227
175 188 212 213 240 248 264 258 228 219 223 242 263 275 281 288 284 276 274 265 254 252 248 240 238 237 235 232 231 235 223 219 218 217 218 219 217 211 209 208 210 212 214 214 215 218 218 222 227
219 210 195 213 228 234 258 266 75 245 266 273 289 299 300 296 290 281 278 276 270 263 257 251 246 241 242 240 233 237 233 221 221 224 223 222 219 216 214 211 212 214 217 217 218 220 220 222 226
Height
1522 1523 1525 1527 1526 1523 1522 1522 1523 1527 1528 1531 1532 1532 1530 1531 1533 1538 1539 1536 1537 1539 1540 1541 1543 1544 1545 1546 1546 1546 1547 1547 1547 1547 1547 1547 1547 1547 1546 1545 1544 1542 1542 1543 1545 1546 1546 1547 1548
1522 1523 1526 1527 1522 1521 1521 1521 1524 1527 1530 1532 1532 1533 1532 1534 1536 1537 1535 1536 1537 1539 1540 1542 1543 1544 1545 1546 1546 1547 1547 1547 1548 1548 1548 1548 1548 1547 1547 1546 1546 1545 1545 1546 1547 1547 1548 1549 1549
1522 1523 1526 1523 1520 1517 1519 1522 1524 1529 1531 1532 1532 1533 1534 1535 1536 1536 1535 1536 1537 1539 1540 1541 1542 1544 1545 1545 1546 1547 1547 1548 1548 1548 1548 1548 1548 1548 1548 1548 1548 1547 1547 1548 1548 1549 1550 1550 1551
1522 1525 1526 1522 1520 1520 1520 1524 1527 1529 1531 1532 1532 1533 1534 1535 1535 1535 1535 1536 1537 1539 1540 1541 1542 1543 1544 1545 1546 1547 1547 1548 1548 1549 1549 1549 1549 1549 1549 1549 1549 1549 1549 1549 1550 1550 1551 1552 1552
1522 1524 1522 1521 1520 1522 1524 1526 1528 1527 1529 1531 1532 1531 1534 1534 1534 1534 1535 1536 1537 1538 1540 1541 1542 1543 1544 1545 1546 1547 1547 1548 1548 1549 1549 1549 1549 1549 1550 1550 1550 1550 1550 1550 1551 1551 1552 1553 1553
1523 1522 1520 1518 1519 1523 1525 1528 1528 1528 1529 1530 1531 1531 1533 1533 1533 1533 1534 1535 1537 1538 1539 1540 1541 1542 1544 1544 1545 1546 1547 1547 1548 1549 1549 1549 1550 1550 1550 1550 1550 1551 1551 1551 1552 1552 1553 1554 1554
1523 1520 1517 1517 1519 1522 1525 1528 1528 1527 1528 1530 1531 1531 1532 1532 1532 1533 1534 1535 1536 1537 1539 1540 1540 1542 1543 1544 1545 1546 1546 1547 1548 1548 1549 1549 1550 1550 1551 1551 1551 1551 1552 1552 1552 1553 1553 1554 1555
1521 1521 1520 1519 1519 1520 1525 1527 1528 1528 1528 1530 1531 1531 1531 1531 1531 1532 1533 1534 1535 1537 1538 1539 1540 1541 1542 1543 1544 1545 1545 1546 1547 1548 1549 1549 1550 1550 1551 1551 1551 1551 1552 1552 1552 1553 1553 1554 1555
1521 1522 1518 1518 1518 1520 1524 1526 1528 1528 1529 1529 1529 1530 1530 1529 1530 1531 1532 1533 1534 1535 1536 1537 1538 1540 1541 1542 1543 1544 1545 1546 1547 1548 1548 1549 1549 1550 1550 1551 1551 1552 1552 1552 1553 1553 1554 1554 1555
1521 1519 1517 1519 1520 1520 1523 1525 1526 1527 1527 1528 1528 1528 1528 1528 1529 1530 1530 1531 1532 1533 1535 1536 1537 1538 1539 1540 1541 1542 1544 1545 1546 1546 1547 1548 1548 1549 1549 1550 1551 1551 1552 1552 1553 1553 1554 1554 1555
1520 1518 1520 1522 1522 1522 1523 1525 1526 1525 1524 1525 1526 1526 1526 1527 1527 1528 1529 1530 1531 1532 1533 1534 1535 1536 1537 1538 1539 1541 1542 1543 1544 1545 1545 1546 1546 1547 1548 1549 1550 1550 1551 1551 1552 1553 1553 1554 1555
1521 1521 1522 1522 1523 1523 1523 1523 1524 1524 1523 1524 1524 1524 1524 1525 1525 1526 1527 1528 1529 1530 1531 1532 1533 1534 1535 1536 1537 1538 1539 1540 1541 1542 1543 1544 1545 1546 1547 1547 1548 1549 1550 1551 1551 1552 1553 1554 1555
1520 1521 1522 1522 1523 1523 1523 1523 1523 1522 1522 1522 1521 1522 1522 1523 1523 1524 1525 1526 1527 1528 1529 1530 1531 1532 1533 1534 1535 1536 1537 1538 1539 1540 1541 1542 1543 1544 1545 1546 1547 1548 1549 1550 1551 1552 1552 1553 1554
1520 1521 1522 1522 1522 1522 1522 1521 1522 1519 1520 1520 1519 1519 1519 1520 1520 1521 1522 1523 1524 1526 1527 1527 1528 1529 1530 1531 1532 1533 1534 1535 1537 1538 1539 1540 1541 1542 1543 1544 1545 1546 1547 1548 1549 1550 1551 1552 1553
1521 1521 1520 1520 1521 1521 1522 1518 1517 1517 1518 1518 1517 1517 1517 1517 1518 1518 1519 1520 1522 1523 1524 1524 1525 1526 1527 1528 1529 1530 1532 1533 1534 1535 1536 1537 1539 1540 1541 1542 1543 1544 1545 1546 1547 1548 1550 1551 1552
1519 1517 1515 1516 1519 1520 1522 1511 1513 1515 1516 1515 1515 1514 1514 1515 1515 1516 1516 1517 1519 1519 1520 1521 1522 1523 1524 1525 1526 1528 1529 1530 1532 1533 1533 1534 1536 1537 1538 1540 1541 1542 1543 1544 1545 1546 1548 1549 1550
1515 1512 1510 1513 1517 1517 1517 1510 1511 1513 1513 1512 1511 1511 1511 1512 1512 1513 1513 1514 1515 1516 1517 1517 1518 1519 1520 1522 1523 1525 1526 1527 1529 1530 1531 1532 1533 1534 1536 1537 1538 1540 1541 1542 1543 1544 1546 1547 1548
1510 1508 1509 1509 1513 1515 1513 1508 1509 1510 1510 1509 1508 1508 1508 1508 1509 1509 1510 1511 1512 1513 1513 1514 1515 1516 1517 1519 1520 1521 1523 1524 1525 1526 1528 1529 1530 1531 1533 1534 1535 1537 1538 1539 1541 1542 1544 1545 1546
1510 1510 1508 1509 1513 1513 1508 1505 1504 1506 1507 1506 1505 1504 1504 1504 1505 1506 1506 1507 1508 1509 1509 1510 1511 1512 1513 1514 1516 1517 1518 1520 1522 1523 1524 1525 1527 1528 1529 1530 1532 1533 1535 1536 1538 1539 1541 1542 1544
1512 1511 1509 1510 1513 1513 1507 1502 1500 1501 1501 1501 1501 1500 1500 1501 1501 1502 1502 1503 1504 1505 1505 1506 1507 1508 1509 1511 1512 1514 1516 1517 1518 1519 1521 1522 1523 1525 1526 1527 1528 1530 1532 1533 1534 1536 1537 1539 1541
1510 1509 1508 1510 1511 1511 1509 1495 1493 1494 1497 1497 1497 1497 1497 1497 1497 1498 1498 1499 1500 1500 1501 1502 1504 1505 1506 1507 1509 1511 1513 1514 1515 1516 1517 1518 1520 1521 1523 1524 1525 1527 1528 1529 1531 1533 1534 1535 1538
1506 1509 1511 1512 1510 1502 1507 1491 1483 1488 1491 1491 1492 1492 1492 1493 1493 1494 1494 1495 1496 1497 1498 1499 1500 1501 1502 1503 1505 1506 1507 1508 1510 1512 1513 1515 1516 1517 1519 1520 1522 1523 1525 1526 1527 1529 1530 1532 1533
1507 1511 1512 1512 1509 1507 1504 1500 1478 1485 1484 1484 1487 1488 1489 1489 1490 1490 1491 1492 1493 1494 1495 1496 1497 1498 1499 1500 1501 1503 1504 1506 1507 1509 1510 1511 1513 1514 1515 1516 1518 1520 1521 1523 1524 1525 1526 1528 1529
1511 1512 1513 1512 1508 1500 1496 1495 1474 1477 1477 1480 1484 1486 1486 1486 1487 1487 1488 1489 1490 1491 1492 1492 1494 1494 1495 1496 1498 1499 1500 1502 1503 1504 1505 1507 1508 1510 1511 1512 1514 1515 1517 1519 1520 1521 1522 1524 1525
1509 1506 1501 1498 1495 1486 1495 1493 1476 1474 1478 1480 1482 1483 1484 1484 1484 1485 1485 1486 1486 1487 1488 1489 1490 1491 1492 1493 1494 1495 1497 1498 1499 1500 1501 1502 1504 1505 1506 1508 1509 1511 1512 1514 1516 1517 1518 1519 1520
1504 1502 1497 1491 1484 1481 1494 1486 1472 1477 1479 1480 1481 1481 1482 1482 1482 1482 1482 1482 1483 1483 1484 1485 1486 1487 1488 1489 1490 1491 1493 1494 1495 1496 1497 1498 1499 1501 1502 1503 1504 1506 1508 1509 1511 1512 1513 1514 1516
1502 1501 1502 1501 1501 1494 1479 1476 1474 1477 1478 1479 1479 1479 1479 1480 1480 1479 1479 1479 1480 1480 1480 1481 1482 1483 1484 1485 1486 1487 1488 1489 1490 1492 1493 1494 1495 1496 1497 1498 1500 1501 1502 1504 1506 1507 1508 1509 1510
1504 1501 1503 1499 1493 1482 1473 1472 1466 1472 1474 1476 1477 1478 1478 1478 1477 1477 1477 1477 1477 1477 1477 1478 1479 1479 1480 1481 1481 1482 1483 1485 1486 1487 1488 1488 1490 1491 1492 1493 1494 1496 1497 1499 1500 1501 1502 1503 1505
1503 1504 1499 1495 1493 1482 1471 1463 1466 1469 1472 1474 1475 1476 1476 1476 1475 1475 1474 1474 1474 1474 1474 1474 1475 1475 1476 1476 1477 1478 1478 1480 1481 1482 1483 1484 1484 1485 1486 1487 1489 1490 1491 1493 1494 1495 1496 1497 1499
1498 1496 1496 1493 1492 1491 1477 1467 1471 1472 1472 1474 1475 1475 1474 1474 1474 1473 1472 1471 1470 1470 1470 1470 1470 1470 1471 1472 1472 1473 1474 1474 1475 1476 1477 1478 1479 1479 1480 1481 1483 1484 1485 1486 1488 1489 1490 1491 1492